Weather in Yasno

Russia / Pskov Oblast     57°36′52″N   29°27′53″E
temp.,
°C
wind,
m/s
gust,
m/s
humid.,
%
clouds,
%
prec.,
mm/h
press.,
hPa
HPBL,
m
24 october, sun
sun2400:00+2nw598999 0.2 1012835
03:00+2nw5977100 0.2 10151027
06:00+1nw4119296 0.1 1018712
09:000nw4109263 0.1 1021677
12:00+2nw477384 0.0 10231069
15:00+3nw476860 0.1 10241255
18:000wnw388522 0.0 1026324
21:00−1w2490100 0.0 1027103
25 october, mon
mon2500:000sw2686100 0.0 1027173
03:000ssw31086100 0.0 1026285
06:00+1ssw41390100 0.0 1025413
09:00+2sw51392100 0.0 1024467
12:00+5sw5148585 0.0 1023598
15:00+6sw613775 0.0 1022731
18:00+5sw514803 0.0 1021596
21:00+4sw515832 0.0 1021513
26 october, tue
tue2600:00+3sw51582100 0.0 1020469
03:00+3sw51482100 0.0 1019421
06:00+2sw41383100 0.0 1018389
09:00+2sw41383100 0.0 1017427
12:00+5sw51273100 0.0 1016497
15:00+7sw4116896 0.0 1016588
18:00+5sw41278100 0.0 1016420
21:00+4sw41283100 0.0 1015379
27 october, wed
wed2700:00+5sw41283100 0.0 1014351
03:00+5sw41186100 0.0 1013369
06:00+5sw41094100 0.9 1012399
09:00+6wsw41097100 2.3 1013532
12:00+7w5880100 0.0 1013842
15:00+7wsw4986100 0.1 1014811
18:00+7w4977100 0.0 1015584
21:00+7w4981100 0.0 1016565
28 october, thu
thu2800:00+6wsw3885100 0.0 1017409
03:00+5sw379484 0.0 1017219
06:00+6ssw31097100 0.1 1016368
09:00+7ssw41297100 2.0 1014593
12:00+9sw51397100 6.9 1013755
15:00+10w51297100 11.0 1013858
18:00+9wnw31098100 0.4 1015652
21:00+10wnw3898100 0.7 1017521